STARLINK-2578

operational
NORAD ID: 48362 Int'l Des: 2021-038 Owner: SPXS Country: US Constellation: starlink
LEOCIRCULARSTARLINK_TYPE

STARLINK-2578について

説明を読み込み中...

リアルタイム位置

3D地球を読み込み中...

次回通過

高度履歴

Altitude vs Time

uPlot chart will show altitude changes over time

軌道要素

1 48362U 21038K 25251.94808132 .00008738 00000-0 60504-3 0 9991
2 48362 53.0530 97.5731 0001328 60.3090 299.8031 15.06384666239635
Epoch: Sep 8, 2025 • Age: 8 hours

現在のステータス

高度 546.8 km
速度 7.59 km/s
衛星直下点 16.74°N, 18.36°E
打ち上げ日 May 4, 2021
運用期間 4.3 years
タイプ internet

技術仕様

分類 Payload
質量 260.00 kg
乾燥質量 248.00 kg
総質量 260.00 kg
長さ 0.20 m
直径 2.80 m
スパン 9.00 m
形状 Box + pan
製造者 SPXS
バスタイプ Starlink
フェーズステータス In Orbit
所有者/国 SPXS/US

大規模コンステレーション

Loading constellations...